DW5375 Weather Reports


time (UTC)temp
C
wind
direction
speed
KPH
gust
KPH
rain 1hr
cm
rain 24hr
cm
rain mn
cm
humidity
%
barometer
mb
20260503224541 -17 48 3.2 9.7 0.00 0.00 0.00 1011.7
20260503223038 -17 44 3.2 11.3 0.00 0.00 0.00 1012.0
20260503221533 -17 24 4.8 9.7 0.00 0.00 0.00 1012.1
20260503220028 -17 5 4.8 12.9 0.00 0.00 0.00 1012.3
20260503214526 -17 38 4.8 11.3 0.00 0.00 0.00 1012.4
20260503213019 -17 38 6.4 12.9 0.00 0.00 0.00 1012.7
20260503211514 -17 41 6.4 12.9 0.00 0.00 0.00 1012.7
20260503210010 -17 29 6.4 11.3 0.00 0.00 0.00 1012.9
20260503204515 -17 22 1.6 9.7 0.00 0.00 0.00 1013.2
20260503203004 -17 23 4.8 8.0 0.00 0.00 0.00 1013.5
20260503201557 -17 26 3.2 9.7 0.00 0.00 0.00 1013.6
20260503200056 -17 11 3.2 9.7 0.00 0.00 0.00 1013.7
20260503194548 -17 12 6.4 12.9 0.00 0.00 0.00 1013.8
20260503193046 -17 42 6.4 11.3 0.00 0.00 0.00 1013.9
20260503191540 -17 13 6.4 12.9 0.00 0.00 0.00 1014.0
20260503190035 -17 49 3.2 17.7 0.00 0.00 0.00 1014.1
20260503184531 -17 36 4.8 16.1 0.00 0.00 0.00 1014.3
20260503183026 -17 28 4.8 14.5 0.00 0.00 0.00 1014.5
20260503181522 -17 28 4.8 14.5 0.00 0.00 0.00 1014.6
20260503180031 -17 25 3.2 11.3 0.00 0.00 0.00 1014.7
20260503174516 -17 11 4.8 8.0 0.00 0.00 0.00 1014.9
20260503173012 -17 34 3.2 9.7 0.00 0.00 0.00 1014.9
20260503171507 -17 62 1.6 8.0 0.00 0.00 0.00 1015.0
20260503081527 -17 91 0.0 1.6 0.00 0.00 0.00 1014.9
20260503071511 -17 90 0.0 1.6 0.00 0.00 0.00 1014.7
20260503060109 -17 91 0.0 0.0 0.00 0.00 0.00 1014.6
20260503054546 -17 90 0.0 0.0 0.00 0.00 0.00 1014.6
20260503053040 -17 90 0.0 0.0 0.00 0.00 0.00 1014.6
20260503051535 -17 90 0.0 0.0 0.00 0.00 0.00 1014.6
20260503050034 -17 90 0.0 0.0 0.00 0.00 0.00 1014.6
20260503044526 -17 90 0.0 0.0 0.00 0.00 0.00 1014.4
20260503043036 -17 90 0.0 0.0 0.00 0.00 0.00 1014.4
20260503041518 -17 90 0.0 0.0 0.00 0.00 0.00 1014.3
20260503040013 -17 90 0.0 0.0 0.00 0.00 0.00 1014.2
20260503034509 -17 90 0.0 3.2 0.00 0.00 0.00 1014.0
20260503033015 -17 90 0.0 3.2 0.00 0.00 0.00 1013.7
20260503031602 -17 90 1.6 4.8 0.00 0.00 0.00 1013.6
20260503024551 -17 90 1.6 4.8 0.00 0.00 0.00 1013.5
20260503023055 -17 90 0.0 1.6 0.00 0.00 0.00 1013.5
20260503021551 -17 90 0.0 3.2 0.00 0.00 0.00 1013.6
20260503020047 -17 68 0.0 4.8 0.00 0.00 0.00 1013.6
20260503014533 -17 48 0.0 4.8 0.00 0.00 0.00 1013.7
20260503013030 -17 35 3.2 6.4 0.00 0.00 0.00 1013.8
20260503011525 -17 15 3.2 4.8 0.00 0.00 0.00 1014.0
20260503010021 -17 5 1.6 4.8 0.00 0.00 0.00 1014.1
20260503004516 -17 5 1.6 9.7 0.00 0.00 0.00 1014.2
20260503003014 -17 360 3.2 8.0 0.00 0.00 0.00 1014.3
20260503001508 -17 11 1.6 8.0 0.00 0.00 0.00 1014.3
20260503000005 -17 5 3.2 8.0 0.00 0.00 0.00 1014.5
20260502234559 -17 5 3.2 6.4 0.00 0.00 0.00 1014.6
20260502233055 -17 355 3.2 8.0 0.00 0.00 0.00 1014.7
20260502231549 -17 5 3.2 8.0 0.00 0.00 0.00 1014.8
20260502230046 -17 313 3.2 12.9 0.00 0.00 0.00 1015.0